Weather in Giza

Egypt     30°01′10″N   31°11′24″E
temp.,
°C
wind,
m/s
gust,
m/s
humid.,
%
clouds,
%
prec.,
mm/h
press.,
hPa
HPBL,
m
23 april, fri
fri2323:00+18ne710510 0.0 1019461
02:00+16nne710600 0.0 1018418
05:00+15nne610660 0.0 1018371
08:00+18ne710511 0.0 1018554
11:00+26ne892325 0.0 10161003
14:00+30ne78165 0.0 10141323
17:00+29nne88155 0.0 10131531
20:00+22ne810340 0.0 1015459
24 april, sat
sat2423:00+19nne710590 0.0 1015414
02:00+17nne58680 0.0 1014314
05:00+16nne58734 0.0 1013275
08:00+19nne685452 0.0 1013477
11:00+27nne67237 0.0 1012949
14:00+32nne561331 0.0 10091584
17:00+32ne77127 0.0 10081529
20:00+25ene710240 0.0 1010365
25 april, sun
sun2523:00+23ne46320 0.0 1011225
02:00+21ene35330 0.0 1009154
05:00+21ne12290 0.0 100834
08:00+25e11190 0.0 1008196
11:00+31s22110 0.0 1008607
14:00+37sw4660 0.0 10051630
17:00+37ssw6980 0.0 10042023
20:00+24nnw10123532 0.0 1008580
26 april, mon
mon2623:00+21nnw610510 0.0 1009558
02:00+18nw58690 0.0 1010618
05:00+17nw677882 0.0 1011690
08:00+19nw45612 0.0 1013906
11:00+24nw56370 0.0 10131477
14:00+28nw77250 0.0 10111989
17:00+26nw99300 0.0 10111653
20:00+20nnw89500 0.0 1014794
27 april, tue
tue2723:00+17n68660 0.0 1015666
02:00+16n57700 0.0 1014545
05:00+15n35740 0.0 1014398
08:00+17n45630 0.0 1015696
11:00+23nne34390 0.0 10151056
14:00+29n35190 0.0 10121694
17:00+31n67150 0.0 10112254
20:00+23nne89404 0.0 1014662